TimeEST,TemperatureF,Dew PointF,Humidity,Sea Level PressureIn,VisibilityMPH,Wind Direction,Wind SpeedMPH,Gust SpeedMPH,PrecipitationIn,Events,Conditions,WindDirDegrees,DateUTC
12:15 AM,14.5,12.6,92,30.04,10.0,East,4.6,-,N/A,,Overcast,80,2012-12-29 05:15:00
12:35 AM,14.5,12.6,92,30.04,10.0,East,3.5,-,N/A,,Overcast,100,2012-12-29 05:35:00
12:55 AM,14.5,12.4,91,30.04,10.0,Calm,Calm,-,N/A,,Overcast,0,2012-12-29 05:55:00
1:15 AM,14.7,12.6,91,30.04,10.0,Calm,Calm,-,N/A,,Overcast,0,2012-12-29 06:15:00
1:35 AM,14.5,12.4,91,30.03,10.0,East,3.5,-,N/A,,Overcast,80,2012-12-29 06:35:00
1:55 AM,14.5,12.6,92,30.04,10.0,ENE,3.5,-,N/A,,Overcast,70,2012-12-29 06:55:00
2:15 AM,14.5,12.4,91,30.04,10.0,Calm,Calm,-,N/A,,Overcast,0,2012-12-29 07:15:00
2:35 AM,14.7,12.7,92,30.04,10.0,Calm,Calm,-,N/A,,Overcast,0,2012-12-29 07:35:00
2:55 AM,14.5,12.6,92,30.04,10.0,Calm,Calm,-,N/A,,Overcast,0,2012-12-29 07:55:00
3:15 AM,15.1,13.1,92,30.03,10.0,Calm,Calm,-,N/A,,Overcast,0,2012-12-29 08:15:00
3:35 AM,14.9,12.9,92,30.02,10.0,Calm,Calm,-,N/A,,Overcast,0,2012-12-29 08:35:00
3:55 AM,16.0,13.8,91,30.02,10.0,Calm,Calm,-,N/A,,Overcast,0,2012-12-29 08:55:00
4:15 AM,16.2,14.0,91,30.02,10.0,Calm,Calm,-,N/A,,Overcast,0,2012-12-29 09:15:00
4:35 AM,14.9,12.9,92,30.01,10.0,Calm,Calm,-,N/A,,Overcast,0,2012-12-29 09:35:00
4:55 AM,15.8,14.0,93,30.01,10.0,Calm,Calm,-,N/A,,Overcast,0,2012-12-29 09:55:00
5:15 AM,16.3,14.4,92,30.01,10.0,NNE,3.5,-,N/A,,Overcast,20,2012-12-29 10:15:00
5:35 AM,15.6,13.8,93,30.01,10.0,Calm,Calm,-,N/A,,Overcast,0,2012-12-29 10:35:00
5:55 AM,16.3,14.2,91,30.01,10.0,NNE,3.5,-,N/A,,Overcast,30,2012-12-29 10:55:00
6:15 AM,17.1,15.3,93,29.99,10.0,NE,4.6,-,N/A,,Overcast,40,2012-12-29 11:15:00
6:35 AM,17.1,14.9,91,29.99,10.0,Calm,Calm,-,N/A,,Overcast,0,2012-12-29 11:35:00
6:55 AM,17.1,14.9,91,29.99,10.0,Calm,Calm,-,N/A,,Overcast,0,2012-12-29 11:55:00
7:15 AM,17.1,14.9,91,29.98,10.0,NE,3.5,-,N/A,,Overcast,40,2012-12-29 12:15:00
7:35 AM,17.1,14.9,91,29.97,10.0,NNE,3.5,-,N/A,,Overcast,20,2012-12-29 12:35:00
7:55 AM,17.1,14.9,91,29.99,10.0,Calm,Calm,-,N/A,,Overcast,0,2012-12-29 12:55:00
8:15 AM,17.1,15.1,92,29.98,10.0,Calm,Calm,-,N/A,,Overcast,0,2012-12-29 13:15:00
8:35 AM,17.2,15.3,92,29.98,10.0,North,3.5,-,N/A,,Overcast,350,2012-12-29 13:35:00
8:55 AM,17.4,15.4,92,29.98,7.0,Calm,Calm,-,N/A,,Overcast,0,2012-12-29 13:55:00
9:15 AM,17.6,15.8,93,29.97,7.0,North,4.6,-,N/A,,Overcast,360,2012-12-29 14:15:00
9:35 AM,18.0,16.0,92,29.96,7.0,North,3.5,-,N/A,,Overcast,360,2012-12-29 14:35:00
9:55 AM,18.3,16.3,92,29.97,7.0,North,3.5,-,N/A,,Overcast,360,2012-12-29 14:55:00
10:15 AM,18.3,16.3,92,29.95,7.0,North,3.5,-,N/A,,Overcast,10,2012-12-29 15:15:00
10:35 AM,18.5,16.5,92,29.95,7.0,North,3.5,-,N/A,,Overcast,350,2012-12-29 15:35:00
10:55 AM,19.4,17.2,91,29.95,7.0,Calm,Calm,-,N/A,,Overcast,0,2012-12-29 15:55:00
11:15 AM,19.2,17.1,91,29.93,7.0,North,3.5,-,N/A,,Overcast,10,2012-12-29 16:15:00
11:35 AM,19.4,17.2,91,29.92,5.0,North,3.5,-,N/A,,Overcast,360,2012-12-29 16:35:00
11:55 AM,19.4,17.4,92,29.89,7.0,NNE,3.5,-,N/A,,Overcast,20,2012-12-29 16:55:00
12:15 PM,20.1,17.6,90,29.86,4.0,NE,6.9,-,N/A,Snow,Light Snow,40,2012-12-29 17:15:00
12:35 PM,20.7,18.0,89,29.82,2.0,NE,8.1,-,N/A,Snow,Light Snow,40,2012-12-29 17:35:00
12:55 PM,21.2,18.3,89,29.81,2.5,NE,4.6,-,N/A,Snow,Light Snow,50,2012-12-29 17:55:00
1:15 PM,22.1,19.2,89,29.80,1.8,Calm,Calm,-,N/A,Snow,Light Snow,0,2012-12-29 18:15:00
1:35 PM,22.1,18.9,87,29.79,1.8,NNE,4.6,-,N/A,Snow,Light Snow,20,2012-12-29 18:35:00
1:55 PM,22.1,19.0,88,29.78,1.8,North,3.5,-,N/A,Snow,Light Snow,350,2012-12-29 18:55:00
2:15 PM,22.1,19.4,89,29.77,1.0,North,5.8,-,N/A,Snow,Light Snow,360,2012-12-29 19:15:00
2:35 PM,20.8,18.3,90,29.75,1.2,NNW,4.6,-,N/A,Snow,Light Snow,340,2012-12-29 19:35:00
2:55 PM,20.8,18.5,91,29.76,1.2,North,5.8,-,N/A,Snow,Light Snow,350,2012-12-29 19:55:00
3:35 PM,19.9,17.6,91,29.76,0.8,NNW,3.5,-,N/A,Snow,Light Snow,340,2012-12-29 20:35:00
3:55 PM,19.0,16.5,90,29.75,1.0,NNW,4.6,-,N/A,Snow,Light Snow,340,2012-12-29 20:55:00
4:15 PM,18.3,16.3,92,29.74,1.0,NNW,4.6,-,N/A,Snow,Light Snow,340,2012-12-29 21:15:00
4:35 PM,18.3,16.3,92,29.74,0.8,North,4.6,-,N/A,Snow,Light Snow,350,2012-12-29 21:35:00
4:55 PM,18.3,16.3,92,29.74,2.0,North,3.5,-,N/A,Snow,Light Snow,350,2012-12-29 21:55:00
5:15 PM,18.3,16.3,92,29.73,1.8,Calm,Calm,-,N/A,Snow,Light Snow,0,2012-12-29 22:15:00
5:35 PM,18.3,16.3,92,29.71,1.2,North,4.6,-,N/A,Snow,Light Snow,350,2012-12-29 22:35:00
5:55 PM,18.5,16.5,92,29.71,1.5,NNW,3.5,-,N/A,Snow,Light Snow,330,2012-12-29 22:55:00
6:15 PM,18.5,16.5,92,29.70,2.0,NNW,3.5,-,N/A,Snow,Light Snow,340,2012-12-29 23:15:00
6:35 PM,18.3,16.3,92,29.70,2.0,North,5.8,-,N/A,,Overcast,350,2012-12-29 23:35:00
6:55 PM,18.0,16.0,92,29.69,3.0,NNW,6.9,-,N/A,Snow,Light Snow,340,2012-12-29 23:55:00
7:15 PM,17.1,15.1,92,29.68,3.0,North,6.9,-,N/A,Snow,Light Snow,350,2012-12-30 00:15:00
7:35 PM,17.1,14.9,91,29.67,2.5,North,6.9,-,N/A,Snow,Light Snow,350,2012-12-30 00:35:00
8:15 PM,16.3,14.0,90,29.67,2.5,NNW,5.8,-,N/A,Snow,Light Snow,340,2012-12-30 01:15:00
8:35 PM,14.7,12.2,90,29.66,2.0,NNW,6.9,-,N/A,Snow,Light Snow,340,2012-12-30 01:35:00
8:55 PM,14.5,12.2,90,29.66,2.5,NNW,9.2,-,N/A,Snow,Light Snow,340,2012-12-30 01:55:00
9:15 PM,14.5,12.0,90,29.65,2.5,NNW,6.9,17.3,N/A,Snow,Light Snow,340,2012-12-30 02:15:00
9:35 PM,14.5,12.0,90,29.65,1.8,NNW,9.2,-,N/A,Snow,Light Snow,340,2012-12-30 02:35:00
9:55 PM,13.8,11.1,89,29.65,2.0,NNW,9.2,-,N/A,Snow,Light Snow,340,2012-12-30 02:55:00
10:15 PM,13.1,10.8,90,29.65,2.0,NNW,8.1,-,N/A,Snow,Light Snow,340,2012-12-30 03:15:00
10:35 PM,13.1,10.8,90,29.65,2.5,NNW,6.9,-,N/A,Snow,Light Snow,340,2012-12-30 03:35:00
10:55 PM,13.1,10.4,89,29.65,3.0,NNW,8.1,-,N/A,Snow,Light Snow,340,2012-12-30 03:55:00
11:15 PM,12.9,10.2,89,29.66,5.0,NNW,5.8,-,N/A,Snow,Light Snow,340,2012-12-30 04:15:00
11:35 PM,13.1,10.4,89,29.67,5.0,NNW,6.9,-,N/A,Snow,Light Snow,340,2012-12-30 04:35:00
11:55 PM,12.7,10.0,89,29.66,2.0,NNW,4.6,-,N/A,Snow,Light Snow,330,2012-12-30 04:55:00